Kezdőlap
METAR-TAF:

METAR-TAF

Repülőterek :

Worthington Municipal Airport

Worthington, Minnesota, Amerikai Egyesült Államok

földrajzi szélesség: 43-39N, földrajzi hosszúság: 095-35W, magasság: 480 m

Jelenlegi meteorológiai megfigyelések

A jelentés 32 perccel ezelõtt készült, 10:56 UTC
Kelet-északkeleti szél 4 kt
Hőmérséklet -1°C
Páratartalom 93%
Légköri nyomás 1018 hPa
Látótávolság: 16.1 km
Derült ég

METAR: KOTG 231056Z AUTO 07004KT 10SM CLR M01/M02 A3005 RMK AO2 SLP190 T10111022 FZRANO

Idő: 06:28 (11:28 UTC)


TAF: hiányzik

Meteorológiai megfigyelések és előrejelzések több, mint 4000 repülőtéren (METAR és TAF jelentéseket).

A térképen piros és sárga pontok jelzik az elérhető meteorológiai állomásokat.

Mozgassa az egeret a pont fölött, hogy megjelenjen az állomás neve.

Azután kattintson az időjárási megfigyelések és előrejelzések megtekintéséhez.

A térkép megváltoztatása: kattintson a fekete keresztel jelölt zöld gombra ráközelítéshez, a vonallal jelölt zöld gombra távolításhoz, vagy a zöld nyilakra a szomszédos térképek eléréséhez.


METAR-TAF: